Location: Newark
(51.2625°N, 13.3939°E)
Time: 03:18:36
(UTC+00:00)

deb Explorer IX - Pass Details

Date: 24 November 2019
Orbit: 546 x 1104 km, 38.8° (Epoch: 11 December)

Event Time Altitude Azimuth Distance (km) Brightness Sun altitude
Rises 00:22:18 0° 247° (WSW) 3,803 - -54.6°
Reaches altitude 10° 00:25:33 10° 236° (SW) 2,779 - -54.2°
Maximum altitude 00:30:55 26° 183° (S) 1,740 - -53.7°
Drops below altitude 10° 00:35:45 10° 129° (SE) 2,471 - -53.2°
Sets 00:38:28 0° 116° (ESE) 3,306 - -52.9°
